Regional Weather Roundup
Issued by NWS

Home | Current Version | Previous Version | Text Only | Print | Product List | Glossary On
Versions: 1 2 3 4 5 6 7 8 9 10 11 12 13 14 15 16 17 18 19 20 21 22 23 24 25 26 27 28 29 30 31 32 33 34 35 36 37 38 39 40 41 42 43 44 45 46 47 48 49 50
000
ASUS43 KMPX 050110
RWRMN
WEATHER ROUNDUP FOR MINNESOTA
NATIONAL WEATHER SERVICE TWIN CITIES/CHANHASSEN MN
700 PM CST WED MAR 04 2015


NOTE: "FAIR" INDICATES FEW OR NO CLOUDS BELOW 12,000 FEET WITH NO
SIGNIFICANT WEATHER AND/OR OBSTRUCTIONS TO VISIBILITY. N/A MEANS
CURRENT SKY AND/OR WEATHER CONDITIONS ARE NOT AVAILABLE.

MNZ060>063-068>070-050200-
   Twin Cities Metro

CITY           SKY/WX    TMP DP  RH WIND       PRES   REMARKS
TWIN CITIES    PTCLDY     3 -10  54 NW15      30.33R WCI -16
ST PAUL        CLEAR      5  -7  57 NW13      30.35R WCI -12
CRYSTAL        CLEAR      4 -11  50 NW13      30.32R WCI -13
BLAINE         CLEAR      3 -11  51 W13G21    30.32R WCI -14
LAKEVILLE      CLEAR      1  -9  60 NW14      30.31R WCI -17
EDEN PRAIRIE   CLEAR      3  -9  57 NW13      30.33R WCI -14
SOUTH ST PAUL  CLEAR      6  -8  51 W10G16    30.33R WCI  -9
LAKE ELMO      FAIR       5  -9  51 NW9       30.32R WCI  -9
$$
MNZ001>005-007-008-013>017-022>024-027-028-050200-
   Northwest Minnesota

CITY           SKY/WX    TMP DP  RH WIND       PRES   REMARKS
BEMIDJI        CLEAR     -7 -14  71 W8        30.28R WCI -22
HALLOCK        CLEAR     -2 -11  65 NW5       30.36R WCI -12
ROSEAU         CLEAR     -4 -11  71 W9        30.31R WCI -20
WARROAD        CLEAR     -6 -13  71 W7        30.29R WCI -20
THIEF RVR FALL CLEAR     -6  -6 100 NW6       30.33R WCI -18
CROOKSTON      CLEAR     -2  -8  78 NW3       30.38S
FOSSTON        CLEAR     -9 -15  77 NW5       30.32S WCI -21
DETROIT LAKES  PTCLDY     0  -6  78 N10       30.32R WCI -17
MOORHEAD       CLEAR      1  -4  78 NW5       30.38R WCI  -8
PARK RAPIDS    CLEAR     -5 -15  62 NW10      30.27R WCI -23
MAHNOMEN       FAIR      -5 -10  76 NW5       30.33R WCI -15
$$
MNZ006-009>011-018-025>026-050200-
   North Central Minnesota

CITY           SKY/WX    TMP DP  RH WIND       PRES   REMARKS
BAUDETTE       CLEAR     -3 -14  59 W9        30.25R WCI -19
FLAG ISLAND    CLEAR     -2 -15  55 W9        30.26R WCI -18
INTL FALLS     CLEAR     -7 -16  65 W3        30.24R
WASKISH        CLEAR     -6 -11  77 W7        30.27S WCI -20
BIG FORK       CLEAR     -4  -9  77 W5        30.25R WCI -15
LONGVILLE      CLEAR     -4 -15  59 NW5       30.28R WCI -15
GRAND RAPIDS   CLEAR     -2 -13  60 W10       30.23R WCI -19
CRANE LAKE     CLEAR     -8 -18  59 CALM      30.26R
ORR            CLEAR     -4 -17  54 CALM      30.20R
COOK           CLEAR     -4 -15  59 NW3       30.22R
WALKER         FAIR      -6 -16  59 NW3       30.28R
$$
MNZ012-019>021-037-050200-
   Northeast Minnesota

CITY           SKY/WX    TMP DP  RH WIND       PRES   REMARKS
DULUTH         CLEAR     -1 -16  48 W8        30.20R WCI -15
ELY            CLEAR     -6 -17  59 W5        30.20R WCI -17
HIBBING        CLEAR     -3 -16  53 NW8       30.22R WCI -18
EVELETH        CLEAR      0 -13  55 W5        30.22R WCI -10
DULUTH HARBOR  FAIR       3 -11  51 W12       30.31R WCI -13
TWO HARBORS    CLEAR      1 -11  55 CALM      30.21R
SILVER BAY     CLEAR      0 -15  50 CALM      30.21R
GRAND MARAIS     N/A      1 -10  60 W5        30.24R WCI  -9
G MARAIS ARPRT FAIR      -6 -17  59 NW7       30.09R WCI -20
$$
MNZ029>031-032-039>041-046>048-054>057-064-050200-
   West Central Minnesota

CITY           SKY/WX    TMP DP  RH WIND       PRES   REMARKS
FERGUS FALLS   CLEAR      0  -9  65 NW9       30.39R WCI -16
WHEATON        CLEAR     -2 -11  65 W7        30.40S WCI -16
MORRIS         CLEAR     -2  -9  71 NW8       30.35R WCI -17
ALEXANDRIA     CLEAR     -5 -12  72 NW8       30.31R WCI -20
ELBOW LAKE     FAIR      -2  -8  76 NW10      30.34R WCI -18
WADENA         CLEAR     -6 -11  77 NW6       30.30R WCI -18
GLENWOOD       CLEAR     -6 -11  77 W7        30.33R WCI -20
APPLETON       CLEAR      0  -9  65 NW8       30.39R WCI -15
BENSON         CLEAR     -2  -9  71 NW8       30.37R WCI -17
ORTONVILLE       N/A      0  -8  71 NW7       30.38R WCI -13
MADISON        CLEAR      1  -9  60 NW7       30.40R WCI -11
WILLMAR        FAIR       1  -6  71 NW12      30.36R WCI -15
$$
MNZ033>034-036-042>043-049>051-058-059-050200-
   Central Minnesota

CITY           SKY/WX    TMP DP  RH WIND       PRES   REMARKS
ST CLOUD       CLEAR     -1 -13  56 NW9       30.33R WCI -16
SAUK CENTRE    FAIR      -4 -13  64 W3        30.33R
PAYNESVILLE    CLEAR     -4 -13  65 W8        30.34R WCI -19
AITKIN         CLEAR      0 -15  50 CALM      30.27R
PINE RIVER     CLEAR     -2 -13  60 NW3       30.31R
BRAINERD       CLEAR     -2 -14  56 W7        30.29R WCI -15
STAPLES        CLEAR     -6 -13  71 W7        30.30R WCI -20
LONG PRAIRIE   FAIR      -4 -13  65 W7        30.31R WCI -18
LITTLE FALLS   CLEAR      0 -13  55 W3        30.33R
LITCHFIELD     CLEAR      1 -11  55 CALM      30.35R
BUFFALO        CLEAR      2 -11  55 W7        30.35R WCI -11
MAPLE LAKE     CLEAR      1  -9  60 W9        30.34R WCI -14
$$
MNZ037-044-045-052-053-050200-
   East Central Minnesota

CITY           SKY/WX    TMP DP  RH WIND       PRES   REMARKS
PRINCETON      CLEAR      1 -11  55 W8        30.32R WCI -12
MORA           CLEAR      1 -15  46 NW5       30.31R WCI  -8
CAMBRIDGE      CLEAR      3  -9  55 W6        30.30R WCI  -8
RUSH CITY      MOCLDY     1 -13  51 NW5       30.31R WCI  -9
MOOSE LAKE     PTCLDY     1 -15  46 CALM      30.26R
HINCKLEY       FAIR       1 -13  51 W5        30.29R WCI  -8
CLOQUET        CLEAR      0 -17  46 W6        30.23R WCI -12
MCGREGOR       CLEAR      0 -13  55 NW8       30.28R WCI -15
$$
MNZ071>073-080-081-089-090-097-098-050200-
   Southwest Minnesota

CITY           SKY/WX    TMP DP  RH WIND       PRES   REMARKS
MONTEVIDEO     FAIR       0  -8  71 N7        30.40R WCI -13
GRANITE FALLS  CLEAR      0  -7  72 NW10      30.40R WCI -16
CANBY          CLEAR      0  -9  68 NW9       30.40R WCI -16
MARSHALL       CLEAR      1 -11  55 NW14      30.38R WCI -17
REDWOOD FALLS  CLEAR      2  -7  66 NW13      30.38R WCI -15
OLIVIA         PTCLDY     1  -6  71 NW13      30.37R WCI -16
PIPESTONE      CLEAR      0  -8  71 N14G21    30.32R WCI -19
WINDOM         CLEAR      1  -8  66 NW13      30.33R WCI -16
WORTHINGTON    CLEAR      1  -8  66 NW16      30.34R WCI -18
JACKSON        PTCLDY     5  -6  61 NW15      30.33R WCI -13
TRACY          CLEAR      1  -8  66 NW13      30.36R WCI -16
SLAYTON        CLEAR      0 -10  62 NW13      30.33R WCI -18
$$
MNZ065>067-074>077-082>085-091>093-050200-
   South Central Minnesota

CITY           SKY/WX    TMP DP  RH WIND       PRES   REMARKS
MANKATO        MOCLDY     3  -4  72 NW17G23   30.34R WCI -17
NEW ULM        PTCLDY     1  -6  71 NW14      30.36R WCI -17
ST JAMES       CLEAR      3  -4  72 NW14      30.37R WCI -15
FAIRMONT       CLEAR      5  -8  56 NW14      30.33R WCI -12
GLENCOE        CLEAR      3  -6  66 NW13      30.34R WCI -15
FARIBAULT      CLEAR      3  -8  60 W10       30.32R WCI -12
OWATONNA       PTCLDY     3  -8  60 NW18G25   30.31R WCI -17
WASECA         PTCLDY     3  -4  72 NW13G18   30.33R WCI -14
ALBERT LEA     CLEAR      5  -4  66 NW12G17   30.31R WCI -11
$$
MNZ078>079-086>088-094>096-050200-
   Southeast Minnesota

CITY           SKY/WX    TMP DP  RH WIND       PRES   REMARKS
ROCHESTER      CLEAR      3  -6  66 NW15      30.27R WCI -16
RED WING       CLEAR      7  -9  47 NW8       30.31R WCI  -6
STANTON        CLEAR      5  -8  56 NW13      30.31R WCI -12
DODGE CENTER   PTCLDY     3  -2  78 NW13G21   30.27R WCI -14
WINONA         PTCLDY    12  -2  52 W10G16    30.32R WCI  -1
AUSTIN         CLEAR      3  -4  72 NW13G18   30.29R WCI -14
PRESTON        CLEAR      4  -5  67 NW10      30.28R WCI -12
$$
ABBREVIATIONS USED IN REMARKS
   TC - TEMPERATURES IN CELSIUS
  WCI - WIND CHILL INDEX
   HX - HEAT INDEX
  VSB - VISIBILITY
$$


USA.gov is the U.S. government's official web portal to all federal, state and local government web resources and services.